Location: Newark
(25.4800°N, 85.7200°E)
Time: 18:11:48
(UTC+00:00)

Explorer 11/Cluster Stage 4 - Pass Details

Date: 27 August 2019
Orbit: 467 x 1259 km, 28.8° (Epoch: 15 October)

Event Time Altitude Azimuth Distance (km) Brightness Sun altitude
Rises 05:31:59 0° 278° (W) 4,047 10.1 71.1°
Reaches altitude 10° 05:34:46 10° 280° (W) 3,147 9.6 71.5°
Maximum altitude 05:42:52 71° 4° (N) 1,317 8.8 72.5°
Drops below altitude 10° 05:51:00 10° 88° (E) 3,162 9.9 73.3°
Sets 05:53:49 0° 91° (E) 4,066 10.3 73.6°
